• In Latvia
  • List of Countries
  • For 7 days
  • Water Temperature
  • Satellite Maps
  • Weather Map
  • Weather Widgets
  • user-avatar
    Login

    Hourly Weather Arkadia

    Today, 18 September, Tuesday

    Time Temperature Precipitation Wind Pressure Humidity
    00:00 +15°C° 0 mm 2 mps 669 mmHg 67%
    01:00 +14°C° 0 mm 3 mps 669 mmHg 67%
    02:00 +15°C° 0 mm 2 mps 668 mmHg 69%
    03:00 +15°C° 0 mm 2 mps 668 mmHg 71%
    04:00 +14°C° 0 mm 2 mps 668 mmHg 72%
    05:00 +15°C° 0 mm 2 mps 669 mmHg 70%
    06:00 +16°C° 0 mm 2 mps 669 mmHg 68%
    07:00 +17°C° 0 mm 3 mps 669 mmHg 64%
    08:00 +19°C° 0 mm 3 mps 670 mmHg 59%
    09:00 +20°C° 0 mm 3 mps 670 mmHg 53%
    10:00 +21°C° 0 mm 3 mps 671 mmHg 48%
    11:00 +22°C° 0 mm 3 mps 671 mmHg 46%
    12:00 +24°C° 0 mm 3 mps 671 mmHg 44%
    13:00 +25°C° 0 mm 3 mps 671 mmHg 42%
    14:00 +24°C° 0 mm 3 mps 670 mmHg 44%
    15:00 +22°C° 0 mm 3 mps 670 mmHg 45%
    16:00 +22°C° 0 mm 3 mps 670 mmHg 47%
    17:00 +20°C° 0 mm 2 mps 669 mmHg 52%
    18:00 +19°C° 0 mm 2 mps 669 mmHg 57%
    19:00 +19°C° 0 mm 1 mps 669 mmHg 62%
    20:00 +18°C° 0 mm 1 mps 669 mmHg 65%
    21:00 +16°C° 0 mm 1 mps 669 mmHg 68%
    22:00 +16°C° 0 mm 1 mps 669 mmHg 71%
    23:00 +15°C° 0 mm 1 mps 669 mmHg 72%

    Tomorrow, 19 September, Wednesday

    Time Temperature Precipitation Wind Pressure Humidity
    00:00 +15°C° 0 mm 1 mps 668 mmHg 74%
    01:00 +14°C° 0 mm 2 mps 668 mmHg 76%
    02:00 +14°C° 0 mm 2 mps 668 mmHg 75%
    03:00 +14°C° 0 mm 2 mps 668 mmHg 75%
    04:00 +13°C° 0 mm 2 mps 668 mmHg 74%
    05:00 +14°C° 0 mm 2 mps 668 mmHg 69%
    06:00 +15°C° 0 mm 2 mps 668 mmHg 64%
    07:00 +16°C° 0 mm 2 mps 669 mmHg 58%
    08:00 +18°C° 0 mm 2 mps 669 mmHg 52%
    09:00 +20°C° 0 mm 2 mps 670 mmHg 45%
    10:00 +23°C° 0 mm 2 mps 670 mmHg 38%
    11:00 +24°C° 0 mm 2 mps 670 mmHg 37%
    12:00 +24°C° 0 mm 2 mps 670 mmHg 35%
    13:00 +25°C° 0 mm 3 mps 670 mmHg 34%
    14:00 +24°C° 0 mm 3 mps 670 mmHg 36%
    15:00 +22°C° 0 mm 3 mps 670 mmHg 39%
    16:00 +22°C° 0 mm 3 mps 669 mmHg 41%
    17:00 +20°C° 0 mm 2 mps 669 mmHg 48%
    18:00 +18°C° 0 mm 2 mps 669 mmHg 54%
    19:00 +18°C° 0 mm 1 mps 668 mmHg 61%
    20:00 +16°C° 0 mm 1 mps 668 mmHg 63%
    21:00 +15°C° 0 mm 1 mps 668 mmHg 66%
    22:00 +15°C° 0 mm 1 mps 668 mmHg 68%
    23:00 +14°C° 0 mm 1 mps 668 mmHg 70%

    Day after tomorrow, 20 September, Thursday

    Time Temperature Precipitation Wind Pressure Humidity
    00:00 +14°C° 0 mm 1 mps 668 mmHg 71%
    01:00 +14°C° 0 mm 1 mps 667 mmHg 73%
    02:00 +13°C° 0 mm 1 mps 667 mmHg 70%
    03:00 +13°C° 0 mm 2 mps 667 mmHg 67%
    04:00 +13°C° 0 mm 2 mps 666 mmHg 64%
    05:00 +14°C° 0 mm 2 mps 667 mmHg 60%
    06:00 +15°C° 0 mm 2 mps 667 mmHg 55%
    07:00 +16°C° 0 mm 2 mps 668 mmHg 51%
    08:00 +18°C° 0 mm 2 mps 668 mmHg 44%
    09:00 +20°C° 0 mm 2 mps 669 mmHg 37%
    10:00 +23°C° 0 mm 2 mps 670 mmHg 30%
    11:00 +24°C° 0 mm 2 mps 670 mmHg 29%
    12:00 +24°C° 0 mm 2 mps 670 mmHg 28%
    13:00 +25°C° 0 mm 3 mps 669 mmHg 27%
    14:00 +24°C° 0 mm 3 mps 669 mmHg 29%
    15:00 +23°C° 0 mm 2 mps 669 mmHg 32%
    16:00 +23°C° 0 mm 2 mps 668 mmHg 34%
    17:00 +20°C° 0 mm 2 mps 668 mmHg 41%
    18:00 +19°C° 0 mm 1 mps 668 mmHg 47%
    19:00 +16°C° 0 mm 1 mps 667 mmHg 53%
    20:00 +16°C° 0 mm 1 mps 667 mmHg 55%
    21:00 +15°C° 0 mm 1 mps 667 mmHg 57%
    22:00 +15°C° 0 mm 1 mps 667 mmHg 58%
    23:00 +14°C° 0 mm 1 mps 667 mmHg 58%

    21 September, Friday

    Time Temperature Precipitation Wind Pressure Humidity
    00:00 +14°C° 0 mm 1 mps 667 mmHg 59%
    01:00 +13°C° 0 mm 1 mps 666 mmHg 59%
    02:00 +13°C° 0 mm 1 mps 666 mmHg 57%
    03:00 +13°C° 0 mm 1 mps 666 mmHg 55%
    04:00 +13°C° 0 mm 1 mps 666 mmHg 53%
    05:00 +14°C° 0 mm 1 mps 666 mmHg 50%
    06:00 +15°C° 0 mm 1 mps 667 mmHg 47%
    07:00 +16°C° 0 mm 1 mps 667 mmHg 45%
    08:00 +19°C° 0 mm 1 mps 668 mmHg 41%
    09:00 +20°C° 0 mm 2 mps 669 mmHg 37%
    10:00 +23°C° 0 mm 2 mps 669 mmHg 33%
    11:00 +24°C° 0 mm 2 mps 669 mmHg 32%
    12:00 +24°C° 0 mm 2 mps 669 mmHg 30%
    13:00 +25°C° 0 mm 2 mps 669 mmHg 29%
    14:00 +24°C° 0 mm 2 mps 669 mmHg 32%
    15:00 +24°C° 0 mm 2 mps 668 mmHg 34%
    16:00 +23°C° 0 mm 2 mps 668 mmHg 36%
    17:00 +20°C° 0 mm 2 mps 668 mmHg 43%
    18:00 +19°C° 0 mm 1 mps 667 mmHg 50%
    19:00 +18°C° 0 mm 1 mps 667 mmHg 57%
    20:00 +16°C° 0 mm 1 mps 667 mmHg 59%
    21:00 +16°C° 0 mm 1 mps 667 mmHg 60%
    22:00 +15°C° 0 mm 1 mps 667 mmHg 62%
    23:00 +15°C° 0 mm 1 mps 667 mmHg 62%

    22 September, Saturday

    Time Temperature Precipitation Wind Pressure Humidity
    00:00 +15°C° 0 mm 1 mps 666 mmHg 62%
    01:00 +14°C° 0 mm 1 mps 666 mmHg 62%
    02:00 +14°C° 0 mm 1 mps 666 mmHg 62%
    03:00 +14°C° 0 mm 1 mps 666 mmHg 62%
    04:00 +14°C° 0 mm 1 mps 666 mmHg 62%
    05:00 +15°C° 0 mm 1 mps 666 mmHg 58%
    06:00 +16°C° 0 mm 1 mps 667 mmHg 55%
    07:00 +18°C° 0 mm 1 mps 667 mmHg 51%
    08:00 +20°C° 0 mm 1 mps 668 mmHg 45%
    09:00 +22°C° 0 mm 1 mps 668 mmHg 38%
    10:00 +24°C° 0 mm 1 mps 669 mmHg 31%
    11:00 +25°C° 0 mm 2 mps 669 mmHg 30%
    12:00 +25°C° 0 mm 2 mps 668 mmHg 29%
    13:00 +25°C° 0 mm 2 mps 668 mmHg 28%
    14:00 +25°C° 0 mm 2 mps 668 mmHg 31%
    15:00 +24°C° 0 mm 2 mps 668 mmHg 34%
    16:00 +24°C° 0 mm 2 mps 668 mmHg 37%
    17:00 +21°C° 0 mm 2 mps 667 mmHg 44%
    18:00 +19°C° 0 mm 2 mps 667 mmHg 52%
    19:00 +19°C° 0 mm 1 mps 667 mmHg 59%
    20:00 +18°C° 0 mm 1 mps 667 mmHg 63%
    21:00 +18°C° 0 mm 1 mps 667 mmHg 67%
    22:00 +16°C° 0 mm 1 mps 667 mmHg 71%
    23:00 +16°C° 0 mm 1 mps 667 mmHg 72%

    23 September, Sunday

    Time Temperature Precipitation Wind Pressure Humidity
    00:00 +15°C° 0 mm 1 mps 666 mmHg 74%
    01:00 +15°C° 0 mm 1 mps 666 mmHg 76%
    02:00 +15°C° 0 mm 1 mps 666 mmHg 76%
    03:00 +15°C° 0 mm 1 mps 666 mmHg 75%
    04:00 +15°C° 0 mm 1 mps 666 mmHg 75%
    05:00 +16°C° 0 mm 1 mps 666 mmHg 70%
    06:00 +18°C° 0 mm 1 mps 667 mmHg 65%
    07:00 +19°C° 0 mm 1 mps 667 mmHg 59%
    08:00 +21°C° 0 mm 1 mps 668 mmHg 53%
    09:00 +23°C° 0 mm 2 mps 668 mmHg 46%
    10:00 +25°C° 0 mm 2 mps 669 mmHg 39%
    11:00 +25°C° 0 mm 2 mps 669 mmHg 38%
    12:00 +25°C° 0 mm 2 mps 669 mmHg 37%
    13:00 +26°C° 0 mm 3 mps 668 mmHg 36%
    14:00 +25°C° 0 mm 3 mps 668 mmHg 40%
    15:00 +24°C° 0 mm 3 mps 668 mmHg 43%
    16:00 +22°C° 0 mm 3 mps 668 mmHg 47%
    17:00 +21°C° 0 mm 2 mps 668 mmHg 52%
    18:00 +19°C° 0 mm 2 mps 668 mmHg 58%
    19:00 +19°C° 0 mm 1 mps 668 mmHg 63%
    20:00 +18°C° 0 mm 1 mps 668 mmHg 67%
    21:00 +18°C° 0 mm 1 mps 667 mmHg 71%
    22:00 +16°C° 0 mm 1 mps 667 mmHg 75%
    23:00 +16°C° 0 mm 1 mps 667 mmHg 77%
    Show more